Year,Month,Day,Hour,Minute,Value (Times are PST for windgust in km/hr)
2020,01,11,00,00,6.40
2020,01,11,00,01,4.80
2020,01,11,00,04,3.20
2020,01,11,00,05,6.40
2020,01,11,00,06,4.80
2020,01,11,00,09,6.40
2020,01,11,00,10,8.10
2020,01,11,00,11,8.10
2020,01,11,00,12,6.40
2020,01,11,00,13,4.80
2020,01,11,00,14,4.80
2020,01,11,00,53,6.40
2020,01,11,00,54,6.40
2020,01,11,00,55,4.80
2020,01,11,00,56,4.80
2020,01,11,00,57,4.80
2020,01,11,01,03,6.40
2020,01,11,01,13,6.40
2020,01,11,01,14,4.80
2020,01,11,01,15,6.40
2020,01,11,01,16,9.60
2020,01,11,01,17,8.10
2020,01,11,01,18,3.20
2020,01,11,01,19,8.10
2020,01,11,01,20,11.30
2020,01,11,01,21,11.30
2020,01,11,01,22,8.10
2020,01,11,01,23,11.30
2020,01,11,01,24,6.40
2020,01,11,01,25,4.80
2020,01,11,01,26,8.10
2020,01,11,01,27,9.60
2020,01,11,01,28,8.10
2020,01,11,01,29,14.50
2020,01,11,01,30,4.80
2020,01,11,01,31,9.60
2020,01,11,01,32,6.40
2020,01,11,01,34,6.40
2020,01,11,01,35,9.60
2020,01,11,01,36,16.10
2020,01,11,01,37,11.30
2020,01,11,01,38,17.70
2020,01,11,01,39,9.60
2020,01,11,01,40,8.10
2020,01,11,01,41,11.30
2020,01,11,01,42,11.30
2020,01,11,01,43,16.10
2020,01,11,01,44,8.10
2020,01,11,01,45,8.10
2020,01,11,01,46,8.10
2020,01,11,01,47,8.10
2020,01,11,01,48,14.50
2020,01,11,01,49,9.60
2020,01,11,01,50,6.40
2020,01,11,01,51,11.30
2020,01,11,01,52,16.10
2020,01,11,01,53,12.90
2020,01,11,01,54,9.60
2020,01,11,01,55,8.10
2020,01,11,01,56,9.60
2020,01,11,01,57,11.30
2020,01,11,01,58,8.10
2020,01,11,01,59,11.30
2020,01,11,02,00,6.40
2020,01,11,02,01,4.80
2020,01,11,02,02,8.10
2020,01,11,02,03,9.60
2020,01,11,02,04,6.40
2020,01,11,02,05,9.60
2020,01,11,02,06,6.40
2020,01,11,02,08,12.90
2020,01,11,02,09,4.80
2020,01,11,02,11,4.80
2020,01,11,02,12,3.20
2020,01,11,02,13,11.30
2020,01,11,02,14,4.80
2020,01,11,02,15,8.10
2020,01,11,02,16,14.50
2020,01,11,02,17,11.30
2020,01,11,02,18,14.50
2020,01,11,02,19,11.30
2020,01,11,02,20,9.60
2020,01,11,02,21,9.60
2020,01,11,02,22,11.30
2020,01,11,02,23,9.60
2020,01,11,02,24,1.60
2020,01,11,02,25,8.10
2020,01,11,02,26,9.60
2020,01,11,02,27,16.10
2020,01,11,02,29,11.30
2020,01,11,02,30,16.10
2020,01,11,02,31,24.20
2020,01,11,02,32,11.30
2020,01,11,02,33,8.10
2020,01,11,02,34,14.50
2020,01,11,02,35,3.20
2020,01,11,02,36,20.90
2020,01,11,02,37,14.50
2020,01,11,02,38,12.90
2020,01,11,02,39,17.70
2020,01,11,02,40,12.90
2020,01,11,02,41,14.50
2020,01,11,02,42,11.30
2020,01,11,02,43,14.50
2020,01,11,02,44,17.70
2020,01,11,02,45,22.50
2020,01,11,02,46,14.50
2020,01,11,02,47,14.50
2020,01,11,02,48,8.10
2020,01,11,02,49,11.30
2020,01,11,02,50,16.10
2020,01,11,02,51,16.10
2020,01,11,02,52,9.60
2020,01,11,02,53,9.60
2020,01,11,02,54,11.30
2020,01,11,02,55,16.10
2020,01,11,02,56,17.70
2020,01,11,02,57,20.90
2020,01,11,02,58,17.70
2020,01,11,02,59,8.10
2020,01,11,03,00,8.10
2020,01,11,03,01,11.30
2020,01,11,03,02,17.70
2020,01,11,03,03,16.10
2020,01,11,03,04,11.30
2020,01,11,03,05,17.70
2020,01,11,03,06,14.50
2020,01,11,03,07,4.80
2020,01,11,03,08,29.00
2020,01,11,03,09,17.70
2020,01,11,03,10,9.60
2020,01,11,03,11,16.10
2020,01,11,03,12,19.30
2020,01,11,03,13,9.60
2020,01,11,03,14,6.40
2020,01,11,03,15,11.30
2020,01,11,03,16,14.50
2020,01,11,03,17,9.60
2020,01,11,03,18,8.10
2020,01,11,03,19,9.60
2020,01,11,03,20,8.10
2020,01,11,03,21,17.70
2020,01,11,03,22,11.30
2020,01,11,03,23,8.10
2020,01,11,03,24,11.30
2020,01,11,03,25,17.70
2020,01,11,03,26,17.70
2020,01,11,03,27,8.10
2020,01,11,03,28,11.30
2020,01,11,03,29,11.30
2020,01,11,03,30,6.40
2020,01,11,03,31,6.40
2020,01,11,03,32,6.40
2020,01,11,03,33,11.30
2020,01,11,03,34,11.30
2020,01,11,03,35,8.10
2020,01,11,03,36,8.10
2020,01,11,03,37,11.30
2020,01,11,03,38,19.30
2020,01,11,03,39,12.90
2020,01,11,03,40,16.10
2020,01,11,03,41,6.40
2020,01,11,03,42,9.60
2020,01,11,03,43,6.40
2020,01,11,03,44,19.30
2020,01,11,03,45,11.30
2020,01,11,03,46,16.10
2020,01,11,03,47,20.90
2020,01,11,03,48,14.50
2020,01,11,03,49,19.30
2020,01,11,03,50,9.60
2020,01,11,03,51,20.90
2020,01,11,03,52,17.70
2020,01,11,03,53,16.10
2020,01,11,03,54,17.70
2020,01,11,03,55,25.70
2020,01,11,03,56,22.50
2020,01,11,03,57,20.90
2020,01,11,03,58,14.50
2020,01,11,03,59,9.60
2020,01,11,04,00,9.60
2020,01,11,04,01,16.10
2020,01,11,04,02,11.30
2020,01,11,04,03,16.10
2020,01,11,04,04,16.10
2020,01,11,04,05,16.10
2020,01,11,04,06,16.10
2020,01,11,04,07,19.30
2020,01,11,04,08,16.10
2020,01,11,04,09,4.80
2020,01,11,04,10,8.10
2020,01,11,04,11,9.60
2020,01,11,04,12,9.60
2020,01,11,04,13,17.70
2020,01,11,04,14,14.50
2020,01,11,04,15,8.10
2020,01,11,04,16,16.10
2020,01,11,04,17,12.90
2020,01,11,04,18,16.10
2020,01,11,04,19,14.50
2020,01,11,04,20,16.10
2020,01,11,04,21,9.60
2020,01,11,04,22,16.10
2020,01,11,04,23,14.50
2020,01,11,04,24,16.10
2020,01,11,04,25,14.50
2020,01,11,04,27,16.10
2020,01,11,04,28,4.80
2020,01,11,04,29,11.30
2020,01,11,04,30,8.10
2020,01,11,04,32,3.20
2020,01,11,04,34,4.80
2020,01,11,04,35,4.80
2020,01,11,04,36,3.20
2020,01,11,04,37,6.40
2020,01,11,04,38,11.30
2020,01,11,04,39,8.10
2020,01,11,04,40,8.10
2020,01,11,04,43,9.60
2020,01,11,04,44,12.90
2020,01,11,04,45,11.30
2020,01,11,04,46,9.60
2020,01,11,04,47,8.10
2020,01,11,04,48,9.60
2020,01,11,04,49,14.50
2020,01,11,04,50,9.60
2020,01,11,04,51,11.30
2020,01,11,04,52,9.60
2020,01,11,04,53,1.60
2020,01,11,04,55,6.40
2020,01,11,04,56,6.40
2020,01,11,04,57,11.30
2020,01,11,04,58,8.10
2020,01,11,04,59,8.10
2020,01,11,05,00,9.60
2020,01,11,05,01,6.40
2020,01,11,05,02,8.10
2020,01,11,05,03,8.10
2020,01,11,05,04,14.50
2020,01,11,05,05,6.40
2020,01,11,05,07,1.60
2020,01,11,05,08,8.10
2020,01,11,05,09,8.10
2020,01,11,05,10,12.90
2020,01,11,05,11,4.80
2020,01,11,05,12,3.20
2020,01,11,05,13,4.80
2020,01,11,05,16,8.10
2020,01,11,05,17,11.30
2020,01,11,05,18,11.30
2020,01,11,05,19,11.30
2020,01,11,05,20,6.40
2020,01,11,05,21,4.80
2020,01,11,05,22,11.30
2020,01,11,05,23,6.40
2020,01,11,05,24,8.10
2020,01,11,05,25,6.40
2020,01,11,05,26,14.50
2020,01,11,05,27,8.10
2020,01,11,05,28,4.80
2020,01,11,05,29,8.10
2020,01,11,05,31,8.10
2020,01,11,05,32,8.10
2020,01,11,05,33,9.60
2020,01,11,05,35,8.10
2020,01,11,05,36,8.10
2020,01,11,05,37,8.10
2020,01,11,05,38,3.20
2020,01,11,05,43,9.60
2020,01,11,05,47,8.10
2020,01,11,05,48,11.30
2020,01,11,05,49,1.60
2020,01,11,05,52,9.60
2020,01,11,05,53,12.90
2020,01,11,05,55,8.10
2020,01,11,05,57,11.30
2020,01,11,05,58,9.60
2020,01,11,05,59,11.30
2020,01,11,06,00,3.20
2020,01,11,06,01,3.20
2020,01,11,06,02,9.60
2020,01,11,06,03,8.10
2020,01,11,06,04,11.30
2020,01,11,06,05,3.20
2020,01,11,06,06,8.10
2020,01,11,06,07,3.20
2020,01,11,06,08,14.50
2020,01,11,06,09,16.10
2020,01,11,06,10,6.40
2020,01,11,06,11,6.40
2020,01,11,06,12,11.30
2020,01,11,06,13,3.20
2020,01,11,06,15,8.10
2020,01,11,06,19,6.40
2020,01,11,06,20,6.40
2020,01,11,06,23,4.80
2020,01,11,06,24,9.60
2020,01,11,06,25,6.40
2020,01,11,06,26,11.30
2020,01,11,06,33,9.60
2020,01,11,06,34,11.30
2020,01,11,06,37,3.20
2020,01,11,06,38,4.80
2020,01,11,06,39,16.10
2020,01,11,06,40,4.80
2020,01,11,06,42,8.10
2020,01,11,06,43,9.60
2020,01,11,06,46,6.40
2020,01,11,06,50,8.10
2020,01,11,06,51,9.60
2020,01,11,06,52,8.10
2020,01,11,06,53,9.60
2020,01,11,06,54,9.60
2020,01,11,06,55,9.60
2020,01,11,06,56,4.80
2020,01,11,06,58,16.10
2020,01,11,06,59,17.70
2020,01,11,07,00,9.60
2020,01,11,07,01,12.90
2020,01,11,07,02,19.30
2020,01,11,07,03,14.50
2020,01,11,07,04,9.60
2020,01,11,07,05,6.40
2020,01,11,07,10,17.70
2020,01,11,07,11,6.40
2020,01,11,07,12,17.70
2020,01,11,07,13,12.90
2020,01,11,07,15,8.10
2020,01,11,07,16,6.40
2020,01,11,07,17,4.80
2020,01,11,07,18,11.30
2020,01,11,07,19,8.10
2020,01,11,07,20,14.50
2020,01,11,07,21,14.50
2020,01,11,07,22,6.40
2020,01,11,07,23,3.20
2020,01,11,07,25,9.60
2020,01,11,07,26,8.10
2020,01,11,07,27,8.10
2020,01,11,07,28,11.30
2020,01,11,07,29,11.30
2020,01,11,07,30,14.50
2020,01,11,07,31,8.10
2020,01,11,07,32,3.20
2020,01,11,07,33,8.10
2020,01,11,07,34,9.60
2020,01,11,07,35,11.30
2020,01,11,07,36,9.60
2020,01,11,07,37,12.90
2020,01,11,07,38,3.20
2020,01,11,07,39,9.60
2020,01,11,07,40,9.60
2020,01,11,07,41,6.40
2020,01,11,07,42,8.10
2020,01,11,07,43,1.60
2020,01,11,07,45,4.80
2020,01,11,07,53,6.40
2020,01,11,07,54,4.80
2020,01,11,07,56,3.20
2020,01,11,07,58,1.60
2020,01,11,07,59,9.60
2020,01,11,08,00,9.60
2020,01,11,08,01,9.60
2020,01,11,08,02,4.80
2020,01,11,08,03,11.30
2020,01,11,08,04,9.60
2020,01,11,08,05,8.10
2020,01,11,08,08,8.10
2020,01,11,08,09,8.10
2020,01,11,08,10,6.40
2020,01,11,08,11,11.30
2020,01,11,08,12,9.60
2020,01,11,08,13,3.20
2020,01,11,08,15,16.10
2020,01,11,08,16,11.30
2020,01,11,08,17,11.30
2020,01,11,08,18,9.60
2020,01,11,08,19,11.30
2020,01,11,08,20,9.60
2020,01,11,08,21,9.60
2020,01,11,08,22,12.90
2020,01,11,08,23,6.40
2020,01,11,08,24,1.60
2020,01,11,08,25,9.60
2020,01,11,08,28,3.20
2020,01,11,08,31,11.30
2020,01,11,08,32,9.60
2020,01,11,08,33,4.80
2020,01,11,08,34,8.10
2020,01,11,08,35,12.90
2020,01,11,08,36,14.50
2020,01,11,08,42,14.50
2020,01,11,08,43,11.30
2020,01,11,08,44,6.40
2020,01,11,08,45,3.20
2020,01,11,08,46,14.50
2020,01,11,08,47,8.10
2020,01,11,08,48,12.90
2020,01,11,08,49,9.60
2020,01,11,08,50,9.60
2020,01,11,08,51,19.30
2020,01,11,08,52,14.50
2020,01,11,08,53,9.60
2020,01,11,08,54,6.40
2020,01,11,08,55,14.50
2020,01,11,08,56,6.40
2020,01,11,08,57,9.60
2020,01,11,08,58,6.40
2020,01,11,08,59,9.60
2020,01,11,09,00,8.10
2020,01,11,09,01,8.10
2020,01,11,09,02,14.50
2020,01,11,09,03,6.40
2020,01,11,09,05,16.10
2020,01,11,09,06,6.40
2020,01,11,09,07,11.30
2020,01,11,09,08,14.50
2020,01,11,09,09,4.80
2020,01,11,09,10,14.50
2020,01,11,09,11,16.10
2020,01,11,09,12,24.20
2020,01,11,09,13,17.70
2020,01,11,09,14,17.70
2020,01,11,09,19,4.80
2020,01,11,09,20,14.50
2020,01,11,09,21,14.50
2020,01,11,09,22,9.60
2020,01,11,09,23,8.10
2020,01,11,09,24,6.40
2020,01,11,09,26,14.50
2020,01,11,09,27,11.30
2020,01,11,09,28,14.50
2020,01,11,09,29,11.30
2020,01,11,09,30,3.20
2020,01,11,09,31,4.80
2020,01,11,09,32,4.80
2020,01,11,09,38,12.90
2020,01,11,09,39,17.70
2020,01,11,09,40,20.90
2020,01,11,09,41,12.90
2020,01,11,09,42,6.40
2020,01,11,09,43,4.80
2020,01,11,09,44,9.60
2020,01,11,09,45,16.10
2020,01,11,09,46,17.70
2020,01,11,09,47,17.70
2020,01,11,09,48,19.30
2020,01,11,09,49,17.70
2020,01,11,09,50,22.50
2020,01,11,09,51,29.00
2020,01,11,09,52,24.20
2020,01,11,09,53,22.50
2020,01,11,09,54,24.20
2020,01,11,09,55,27.40
2020,01,11,09,56,24.20
2020,01,11,09,57,27.40
2020,01,11,09,58,41.80
2020,01,11,09,59,27.40
2020,01,11,10,00,29.00
2020,01,11,10,01,25.70
2020,01,11,10,02,35.40
2020,01,11,10,03,35.40
2020,01,11,10,04,29.00
2020,01,11,10,05,30.60
2020,01,11,10,06,19.30
2020,01,11,10,07,9.60
2020,01,11,10,08,19.30
2020,01,11,10,09,32.20
2020,01,11,10,10,22.50
2020,01,11,10,11,27.40
2020,01,11,10,12,37.00
2020,01,11,10,13,20.90
2020,01,11,10,14,30.60
2020,01,11,10,15,24.20
2020,01,11,10,16,29.00
2020,01,11,10,17,29.00
2020,01,11,10,18,19.30
2020,01,11,10,19,27.40
2020,01,11,10,20,22.50
2020,01,11,10,21,25.70
2020,01,11,10,22,20.90
2020,01,11,10,23,24.20
2020,01,11,10,24,22.50
2020,01,11,10,25,27.40
2020,01,11,10,26,32.20
2020,01,11,10,27,19.30
2020,01,11,10,28,27.40
2020,01,11,10,29,32.20
2020,01,11,10,30,19.30
2020,01,11,10,31,27.40
2020,01,11,10,32,20.90
2020,01,11,10,33,27.40
2020,01,11,10,34,22.50
2020,01,11,10,35,20.90
2020,01,11,10,36,16.10
2020,01,11,10,37,29.00
2020,01,11,10,38,27.40
2020,01,11,10,39,22.50
2020,01,11,10,40,20.90
2020,01,11,10,41,17.70
2020,01,11,10,42,22.50
2020,01,11,10,43,19.30
2020,01,11,10,44,25.70
2020,01,11,10,45,27.40
2020,01,11,10,46,22.50
2020,01,11,10,47,20.90
2020,01,11,10,48,24.20
2020,01,11,10,49,14.50
2020,01,11,10,50,20.90
2020,01,11,10,51,17.70
2020,01,11,10,52,24.20
2020,01,11,10,53,22.50
2020,01,11,10,54,27.40
2020,01,11,10,55,27.40
2020,01,11,10,56,19.30
2020,01,11,10,57,22.50
2020,01,11,10,58,25.70
2020,01,11,10,59,17.70
2020,01,11,11,00,19.30
2020,01,11,11,01,16.10
2020,01,11,11,02,11.30
2020,01,11,11,03,14.50
2020,01,11,11,04,9.60
2020,01,11,11,05,20.90
2020,01,11,11,06,16.10
2020,01,11,11,07,19.30
2020,01,11,11,08,16.10
2020,01,11,11,09,20.90
2020,01,11,11,10,19.30
2020,01,11,11,11,4.80
2020,01,11,11,12,16.10
2020,01,11,11,13,11.30
2020,01,11,11,14,16.10
2020,01,11,11,15,11.30
2020,01,11,11,16,9.60
2020,01,11,11,17,11.30
2020,01,11,11,18,14.50
2020,01,11,11,19,3.20
2020,01,11,11,21,6.40
2020,01,11,11,22,14.50
2020,01,11,11,23,6.40
2020,01,11,11,24,14.50
2020,01,11,11,25,11.30
2020,01,11,11,26,24.20
2020,01,11,11,27,19.30
2020,01,11,11,28,29.00
2020,01,11,11,29,27.40
2020,01,11,11,30,33.80
2020,01,11,11,31,17.70
2020,01,11,11,32,19.30
2020,01,11,11,33,11.30
2020,01,11,11,34,20.90
2020,01,11,11,35,17.70
2020,01,11,11,36,9.60
2020,01,11,11,37,12.90
2020,01,11,11,38,20.90
2020,01,11,11,39,14.50
2020,01,11,11,40,11.30
2020,01,11,11,41,12.90
2020,01,11,11,42,16.10
2020,01,11,11,43,17.70
2020,01,11,11,44,19.30
2020,01,11,11,45,24.20
2020,01,11,11,46,24.20
2020,01,11,11,47,14.50
2020,01,11,11,48,17.70
2020,01,11,11,49,12.90
2020,01,11,11,50,4.80
2020,01,11,11,51,1.60
2020,01,11,11,52,16.10
2020,01,11,11,53,16.10
2020,01,11,11,54,4.80
2020,01,11,11,55,6.40
2020,01,11,11,56,8.10
2020,01,11,11,57,17.70
2020,01,11,11,58,8.10
2020,01,11,11,59,11.30
2020,01,11,12,00,9.60
2020,01,11,12,01,11.30
2020,01,11,12,02,24.20
2020,01,11,12,03,17.70
2020,01,11,12,04,4.80
2020,01,11,12,05,14.50
2020,01,11,12,06,20.90
2020,01,11,12,07,12.90
2020,01,11,12,08,4.80
2020,01,11,12,10,17.70
2020,01,11,12,11,9.60
2020,01,11,12,12,9.60
2020,01,11,12,13,14.50
2020,01,11,12,14,6.40
2020,01,11,12,15,16.10
2020,01,11,12,16,4.80
2020,01,11,12,17,4.80
2020,01,11,12,18,12.90
2020,01,11,12,19,6.40
2020,01,11,12,20,11.30
2020,01,11,12,21,14.50
2020,01,11,12,22,11.30
2020,01,11,12,23,17.70
2020,01,11,12,24,19.30
2020,01,11,12,25,12.90
2020,01,11,12,26,11.30
2020,01,11,12,27,9.60
2020,01,11,12,28,17.70
2020,01,11,12,29,9.60
2020,01,11,12,30,19.30
2020,01,11,12,31,17.70
2020,01,11,12,32,17.70
2020,01,11,12,33,3.20
2020,01,11,12,34,4.80
2020,01,11,12,35,9.60
2020,01,11,12,36,3.20
2020,01,11,12,37,11.30
2020,01,11,12,38,17.70
2020,01,11,12,39,14.50
2020,01,11,12,40,11.30
2020,01,11,12,41,17.70
2020,01,11,12,42,19.30
2020,01,11,12,43,17.70
2020,01,11,12,44,8.10
2020,01,11,12,45,19.30
2020,01,11,12,46,16.10
2020,01,11,12,47,20.90
2020,01,11,12,48,9.60
2020,01,11,12,49,19.30
2020,01,11,12,50,22.50
2020,01,11,12,51,19.30
2020,01,11,12,52,11.30
2020,01,11,12,53,16.10
2020,01,11,12,54,22.50
2020,01,11,12,55,8.10
2020,01,11,12,56,11.30
2020,01,11,12,57,22.50
2020,01,11,12,58,19.30
2020,01,11,12,59,19.30
2020,01,11,13,00,14.50
2020,01,11,13,01,22.50
2020,01,11,13,02,27.40
2020,01,11,13,03,16.10
2020,01,11,13,04,32.20
2020,01,11,13,05,24.20
2020,01,11,13,06,22.50
2020,01,11,13,07,24.20
2020,01,11,13,08,19.30
2020,01,11,13,09,17.70
2020,01,11,13,10,16.10
2020,01,11,13,11,22.50
2020,01,11,13,12,16.10
2020,01,11,13,13,9.60
2020,01,11,13,14,14.50
2020,01,11,13,15,14.50
2020,01,11,13,16,11.30
2020,01,11,13,17,11.30
2020,01,11,13,18,8.10
2020,01,11,13,19,4.80
2020,01,11,13,20,16.10
2020,01,11,13,21,16.10
2020,01,11,13,22,16.10
2020,01,11,13,23,16.10
2020,01,11,13,24,8.10
2020,01,11,13,25,17.70
2020,01,11,13,26,14.50
2020,01,11,13,27,19.30
2020,01,11,13,28,16.10
2020,01,11,13,29,8.10
2020,01,11,13,30,6.40
2020,01,11,13,33,11.30
2020,01,11,13,34,8.10
2020,01,11,13,36,14.50
2020,01,11,13,37,9.60
2020,01,11,13,38,11.30
2020,01,11,13,39,16.10
2020,01,11,13,40,1.60
2020,01,11,13,41,11.30
2020,01,11,13,42,9.60
2020,01,11,13,43,22.50
2020,01,11,13,44,16.10
2020,01,11,13,47,9.60
2020,01,11,13,48,8.10
2020,01,11,13,49,9.60
2020,01,11,13,50,19.30
2020,01,11,13,51,16.10
2020,01,11,13,52,16.10
2020,01,11,13,53,14.50
2020,01,11,13,54,8.10
2020,01,11,13,55,8.10
2020,01,11,13,56,12.90
2020,01,11,13,57,20.90
2020,01,11,13,58,16.10
2020,01,11,13,59,22.50
2020,01,11,14,00,20.90
2020,01,11,14,01,16.10
2020,01,11,14,02,27.40
2020,01,11,14,03,19.30
2020,01,11,14,04,19.30
2020,01,11,14,05,8.10
2020,01,11,14,06,11.30
2020,01,11,14,07,14.50
2020,01,11,14,08,8.10
2020,01,11,14,09,8.10
2020,01,11,14,10,19.30
2020,01,11,14,11,17.70
2020,01,11,14,12,11.30
2020,01,11,14,13,6.40
2020,01,11,14,14,16.10
2020,01,11,14,15,11.30
2020,01,11,14,16,8.10
2020,01,11,14,17,8.10
2020,01,11,14,18,16.10
2020,01,11,14,19,14.50
2020,01,11,14,20,9.60
2020,01,11,14,21,6.40
2020,01,11,14,22,9.60
2020,01,11,14,23,6.40
2020,01,11,14,24,6.40
2020,01,11,14,25,11.30
2020,01,11,14,26,12.90
2020,01,11,14,27,1.60
2020,01,11,14,28,4.80
2020,01,11,14,29,6.40
2020,01,11,14,30,6.40
2020,01,11,14,32,14.50
2020,01,11,14,33,6.40
2020,01,11,14,39,4.80
2020,01,11,14,40,1.60
2020,01,11,14,44,8.10
2020,01,11,14,45,9.60
2020,01,11,14,46,3.20
2020,01,11,14,47,6.40
2020,01,11,14,48,9.60
2020,01,11,14,49,9.60
2020,01,11,14,55,8.10
2020,01,11,14,56,4.80
2020,01,11,14,59,12.90
2020,01,11,15,00,9.60
2020,01,11,15,01,4.80
2020,01,11,15,02,16.10
2020,01,11,15,03,11.30
2020,01,11,15,04,4.80
2020,01,11,15,05,4.80
2020,01,11,15,06,14.50
2020,01,11,15,07,4.80
2020,01,11,15,08,22.50
2020,01,11,15,09,17.70
2020,01,11,15,10,12.90
2020,01,11,15,11,11.30
2020,01,11,15,12,11.30
2020,01,11,15,13,8.10
2020,01,11,15,14,8.10
2020,01,11,15,15,4.80
2020,01,11,15,16,8.10
2020,01,11,15,17,6.40
2020,01,11,15,18,8.10
2020,01,11,15,20,11.30
2020,01,11,15,21,6.40
2020,01,11,15,22,9.60
2020,01,11,15,23,6.40
2020,01,11,15,24,4.80
2020,01,11,15,25,11.30
2020,01,11,15,26,9.60
2020,01,11,15,27,14.50
2020,01,11,15,28,8.10
2020,01,11,15,29,4.80
2020,01,11,15,34,8.10
2020,01,11,15,35,9.60
2020,01,11,15,36,6.40
2020,01,11,15,38,9.60
2020,01,11,15,40,8.10
2020,01,11,15,41,4.80
2020,01,11,15,42,6.40
2020,01,11,15,43,9.60
2020,01,11,15,44,9.60
2020,01,11,15,45,11.30
2020,01,11,15,46,11.30
2020,01,11,15,47,8.10
2020,01,11,15,48,6.40
2020,01,11,15,49,3.20
2020,01,11,15,50,4.80
2020,01,11,15,51,6.40
2020,01,11,15,52,1.60
2020,01,11,15,53,6.40
2020,01,11,15,54,4.80
2020,01,11,15,55,4.80
2020,01,11,15,56,12.90
2020,01,11,15,57,14.50
2020,01,11,15,58,8.10
2020,01,11,15,59,11.30
2020,01,11,16,00,11.30
2020,01,11,16,01,11.30
2020,01,11,16,02,8.10
2020,01,11,16,03,9.60
2020,01,11,16,04,16.10
2020,01,11,16,05,3.20
2020,01,11,16,06,9.60
2020,01,11,16,07,4.80
2020,01,11,16,08,6.40
2020,01,11,16,09,14.50
2020,01,11,16,10,8.10
2020,01,11,16,11,16.10
2020,01,11,16,12,11.30
2020,01,11,16,13,11.30
2020,01,11,16,14,4.80
2020,01,11,16,15,3.20
2020,01,11,16,16,9.60
2020,01,11,16,17,9.60
2020,01,11,16,18,4.80
2020,01,11,16,21,11.30
2020,01,11,16,22,17.70
2020,01,11,16,23,16.10
2020,01,11,16,24,20.90
2020,01,11,16,25,16.10
2020,01,11,16,26,9.60
2020,01,11,16,27,20.90
2020,01,11,16,28,17.70
2020,01,11,16,29,14.50
2020,01,11,16,30,19.30
2020,01,11,16,31,19.30
2020,01,11,16,32,11.30
2020,01,11,16,33,14.50
2020,01,11,16,34,11.30
2020,01,11,16,35,6.40
2020,01,11,16,36,4.80
2020,01,11,16,38,8.10
2020,01,11,16,39,6.40
2020,01,11,16,40,12.90
2020,01,11,16,41,8.10
2020,01,11,16,42,8.10
2020,01,11,16,43,6.40
2020,01,11,16,44,6.40
2020,01,11,16,52,1.60
2020,01,11,16,53,11.30
2020,01,11,17,03,1.60
2020,01,11,17,05,3.20
2020,01,11,17,06,6.40
2020,01,11,17,09,4.80
2020,01,11,17,10,4.80
2020,01,11,17,11,4.80
2020,01,11,18,03,6.40
2020,01,11,18,04,6.40
2020,01,11,18,05,3.20
2020,01,11,20,12,3.20
2020,01,11,20,15,1.60
2020,01,11,20,16,1.60
2020,01,11,20,27,6.40
2020,01,11,20,28,6.40
2020,01,11,20,29,9.60
2020,01,11,20,30,11.30
2020,01,11,20,31,8.10
2020,01,11,20,32,8.10
2020,01,11,20,33,9.60
2020,01,11,20,34,8.10
2020,01,11,20,35,8.10
2020,01,11,20,36,11.30
2020,01,11,20,37,8.10
2020,01,11,20,38,9.60
2020,01,11,20,39,11.30
2020,01,11,20,40,11.30
2020,01,11,20,41,11.30
2020,01,11,20,42,6.40
2020,01,11,20,43,9.60
2020,01,11,20,44,9.60
2020,01,11,20,45,9.60
2020,01,11,20,46,8.10
2020,01,11,20,47,8.10
2020,01,11,20,48,14.50
2020,01,11,20,49,16.10
2020,01,11,20,50,9.60
2020,01,11,20,52,16.10
2020,01,11,20,53,11.30
2020,01,11,20,54,6.40
2020,01,11,20,55,11.30
2020,01,11,20,57,8.10
2020,01,11,20,58,9.60
2020,01,11,20,59,11.30
2020,01,11,21,00,14.50
2020,01,11,21,01,8.10
2020,01,11,21,02,11.30
2020,01,11,21,03,11.30
2020,01,11,21,04,16.10
2020,01,11,21,05,11.30
2020,01,11,21,06,12.90
2020,01,11,21,07,16.10
2020,01,11,21,08,17.70
2020,01,11,21,09,9.60
2020,01,11,21,10,14.50
2020,01,11,21,11,11.30
2020,01,11,21,12,14.50
2020,01,11,21,13,14.50
2020,01,11,21,14,14.50
2020,01,11,21,15,19.30
2020,01,11,21,16,16.10
2020,01,11,21,17,17.70
2020,01,11,21,18,19.30
2020,01,11,21,19,14.50
2020,01,11,21,20,11.30
2020,01,11,21,21,17.70
2020,01,11,21,22,11.30
2020,01,11,21,23,19.30
2020,01,11,21,24,22.50
2020,01,11,21,25,20.90
2020,01,11,21,26,14.50
2020,01,11,21,27,17.70
2020,01,11,21,28,20.90
2020,01,11,21,29,16.10
2020,01,11,21,30,20.90
2020,01,11,21,31,16.10
2020,01,11,21,32,16.10
2020,01,11,21,33,19.30
2020,01,11,21,34,19.30
2020,01,11,21,35,22.50
2020,01,11,21,36,17.70
2020,01,11,21,37,19.30
2020,01,11,21,38,8.10
2020,01,11,21,39,16.10
2020,01,11,21,40,16.10
2020,01,11,21,41,19.30
2020,01,11,21,42,22.50
2020,01,11,21,43,24.20
2020,01,11,21,44,25.70
2020,01,11,21,45,19.30
2020,01,11,21,46,19.30
2020,01,11,21,47,20.90
2020,01,11,21,48,19.30
2020,01,11,21,49,19.30
2020,01,11,21,50,16.10
2020,01,11,21,51,16.10
2020,01,11,21,52,17.70
2020,01,11,21,53,16.10
2020,01,11,21,54,20.90
2020,01,11,21,55,17.70
2020,01,11,21,56,20.90
2020,01,11,21,57,19.30
2020,01,11,21,58,20.90
2020,01,11,21,59,16.10
2020,01,11,22,00,9.60
2020,01,11,22,01,27.40
2020,01,11,22,02,19.30
2020,01,11,22,03,22.50
2020,01,11,22,04,25.70
2020,01,11,22,05,22.50
2020,01,11,22,06,22.50
2020,01,11,22,07,17.70
2020,01,11,22,08,16.10
2020,01,11,22,09,16.10
2020,01,11,22,10,27.40
2020,01,11,22,11,19.30
2020,01,11,22,12,20.90
2020,01,11,22,13,11.30
2020,01,11,22,14,19.30
2020,01,11,22,15,24.20
2020,01,11,22,16,22.50
2020,01,11,22,17,22.50
2020,01,11,22,18,17.70
2020,01,11,22,19,17.70
2020,01,11,22,20,19.30
2020,01,11,22,21,20.90
2020,01,11,22,22,17.70
2020,01,11,22,23,19.30
2020,01,11,22,24,25.70
2020,01,11,22,25,19.30
2020,01,11,22,26,22.50
2020,01,11,22,27,17.70
2020,01,11,22,28,16.10
2020,01,11,22,29,20.90
2020,01,11,22,30,20.90
2020,01,11,22,31,19.30
2020,01,11,22,32,22.50
2020,01,11,22,33,20.90
2020,01,11,22,34,19.30
2020,01,11,22,35,19.30
2020,01,11,22,36,11.30
2020,01,11,22,37,11.30
2020,01,11,22,38,16.10
2020,01,11,22,39,14.50
2020,01,11,22,40,8.10
2020,01,11,22,41,11.30
2020,01,11,22,42,16.10
2020,01,11,22,43,19.30
2020,01,11,22,44,16.10
2020,01,11,22,45,17.70
2020,01,11,22,46,11.30
2020,01,11,22,47,8.10
2020,01,11,22,48,11.30
2020,01,11,22,49,19.30
2020,01,11,22,50,14.50
2020,01,11,22,51,17.70
2020,01,11,22,52,8.10
2020,01,11,22,53,6.40
2020,01,11,22,55,8.10
2020,01,11,22,56,8.10
2020,01,11,22,57,11.30
2020,01,11,22,58,11.30
2020,01,11,22,59,11.30
2020,01,11,23,00,8.10
2020,01,11,23,01,12.90
2020,01,11,23,02,9.60
2020,01,11,23,03,11.30
2020,01,11,23,04,17.70
2020,01,11,23,05,27.40
2020,01,11,23,06,11.30
2020,01,11,23,07,16.10
2020,01,11,23,08,17.70
2020,01,11,23,09,22.50
2020,01,11,23,10,14.50
2020,01,11,23,11,17.70
2020,01,11,23,12,11.30
2020,01,11,23,13,9.60
2020,01,11,23,14,8.10
2020,01,11,23,17,12.90
2020,01,11,23,18,19.30
2020,01,11,23,19,9.60
2020,01,11,23,20,8.10
2020,01,11,23,21,8.10
2020,01,11,23,23,1.60
2020,01,11,23,24,3.20
2020,01,11,23,26,4.80
2020,01,11,23,27,11.30
2020,01,11,23,28,8.10
2020,01,11,23,29,8.10
2020,01,11,23,30,16.10
2020,01,11,23,31,11.30
2020,01,11,23,32,8.10
2020,01,11,23,33,9.60
2020,01,11,23,34,16.10
2020,01,11,23,35,17.70
2020,01,11,23,36,17.70
2020,01,11,23,37,11.30
2020,01,11,23,38,16.10
2020,01,11,23,39,16.10
2020,01,11,23,40,20.90
2020,01,11,23,41,8.10
2020,01,11,23,42,8.10
2020,01,11,23,43,12.90
2020,01,11,23,44,19.30
2020,01,11,23,45,8.10
2020,01,11,23,46,14.50
2020,01,11,23,47,9.60
2020,01,11,23,48,19.30
2020,01,11,23,49,16.10
2020,01,11,23,50,17.70
2020,01,11,23,51,8.10
2020,01,11,23,52,17.70
2020,01,11,23,53,9.60
2020,01,11,23,54,4.80
2020,01,11,23,56,11.30
2020,01,11,23,57,3.20
2020,01,11,23,58,11.30
2020,01,11,23,59,8.10
